Location: Shannon
(40.5500°S, 175.4167°E)
Time: 03:37:47
(UTC+00:00)

Cosmos 1302 Rocket - Visible Passes

Search period start: 19 February 2026 00:00
Search period end: 01 March 2026 00:00
Orbit: 752 x 772 km, 74.0° (Epoch: 18 February)

Date Brightness Start Highest point End Pass type
(mag) Time Alt. Az. Time Alt. Az. Time Alt. Az.
19 Feb 6.3 12:15:12 19° SSE 12:15:12 19° SSE 12:16:40 10° SSE visible
19 Feb 6.4 13:55:18 15° SW 13:55:18 15° SW 13:57:11 10° SSW visible
20 Feb 6.6 11:36:52 13° SE 11:36:52 13° SE 11:37:26 10° SE visible
20 Feb 6.2 13:16:59 20° SSW 13:16:59 20° SSW 13:19:05 10° S visible
21 Feb 6.2 12:38:40 21° S 12:38:40 21° S 12:40:33 10° S visible
22 Feb 6.3 12:00:18 19° SSE 12:00:18 19° SSE 12:01:45 10° SSE visible
22 Feb 6.7 13:40:25 11° SW 13:40:25 11° SW 13:40:59 10° SSW visible
23 Feb 6.5 11:21:56 14° SSE 11:21:56 14° SSE 11:22:43 10° SSE visible
23 Feb 6.5 13:02:02 15° SSW 13:02:02 15° SSW 13:03:38 10° SSW visible
24 Feb 6.4 12:23:38 19° SSW 12:23:38 19° SSW 12:25:21 10° S visible
25 Feb 6.3 11:45:12 19° S 11:45:12 19° S 11:46:44 10° S visible
26 Feb 6.4 11:06:45 17° SSE 11:06:45 17° SSE 11:07:51 10° SSE visible
26 Feb 6.8 12:46:51 12° SSW 12:46:51 12° SSW 12:47:50 10° SSW visible
27 Feb 6.5 10:28:16 12° SSE 10:28:16 12° SSE 10:28:43 10° SSE visible
27 Feb 6.6 12:08:22 17° SSW 12:08:22 17° SSW 12:10:00 10° S visible
28 Feb 6.3 11:29:51 20° S 11:29:51 20° S 11:31:35 10° S visible
